Location: Winter Haven
(28.0220°N, 81.7330°W)
Time: 07:14:46
(UTC-05:00)

Amateur Radio Satellites - All Passes

Search period start: 21 November 2017 06:44
Search period end: 22 November 2017 06:44
Location: Winter Haven, 28.0220°N, 81.7330°W

Satellite Date Start Highest point End Downlink Frequencies (MHz)
Time Altitude Azimuth
XW-2C 21 Nov 06:52:14 06:55:48 38° 284° (WNW) 06:59:22 145.795 - 145.815
CUTE 1.7 + AOD 2 21 Nov 06:53:33 06:57:24 32° 98° (E) 07:01:15 437.475
LilacSat-2 21 Nov 06:54:10 06:57:39 33° 285° (WNW) 07:01:08 437.200
CUTE-I 21 Nov 06:55:59 07:01:19 72° 285° (WNW) 07:06:37 437.470
XW-2F 21 Nov 07:03:15 07:06:35 29° 286° (WNW) 07:09:55 145.980 - 146.000
UWE-3 21 Nov 07:10:55 07:13:00 14° 95° (E) 07:15:06 435.000/436.395/437.385
SEEDS 21 Nov 07:24:02 07:28:07 45° 99° (E) 07:32:11 437.485
FO-29 21 Nov 07:30:18 07:35:40 28° 67° (ENE) 07:41:31 435.910
AAUSAT CUBESAT 2 21 Nov 07:31:49 07:35:01 21° 96° (E) 07:38:12 437.432
KAITUO 1B 21 Nov 07:32:05 07:34:32 17° 288° (WNW) 07:36:57 145.475/437.950
CUBEBUG 2 21 Nov 07:48:27 07:52:36 89° 281° (W) 07:56:44 437.445
FALCONSAT 3 21 Nov 07:49:50 07:52:22 18° 145° (SE) 07:54:53 435.103
AO-73 21 Nov 07:51:42 07:54:40 19° 96° (E) 07:57:41 145.935
STRAND 1 21 Nov 07:54:49 07:59:31 36° 261° (W) 08:04:14 437.568
XW-2A 21 Nov 08:05:20 08:08:42 78° 102° (ESE) 08:12:04 145.665 - 145.685
HO-68 21 Nov 08:05:33 08:12:32 56° 288° (WNW) 08:19:28 435.675
Oscar 11 21 Nov 08:08:08 08:11:22 20° 96° (E) 08:14:34 .
SO-50 21 Nov 08:23:53 08:27:55 29° 249° (WSW) 08:31:59 436.795
CUTE 1.7 + AOD 2 21 Nov 08:30:33 08:32:53 14° 290° (WNW) 08:35:13 437.475
ZACube-1 21 Nov 08:35:43 08:39:52 89° 102° (ESE) 08:44:04 437.345
UWE-3 21 Nov 08:45:49 08:49:27 30° 286° (WNW) 08:53:06 435.000/436.395/437.385
SEEDS 21 Nov 09:02:46 09:03:18 10° 291° (WNW) 09:03:51 437.485
PCSat 21 Nov 09:06:17 09:09:26 15° 56° (NE) 09:12:33 145.827
AAUSAT CUBESAT 2 21 Nov 09:07:09 09:10:17 21° 288° (WNW) 09:13:25 437.432
Max Valier Satellite 21 Nov 09:10:48 09:11:49 11° 95° (E) 09:12:49 145.860
FO-29 21 Nov 09:14:35 09:20:20 38° 263° (W) 09:26:49 435.910
UNISAT 6 21 Nov 09:18:32 09:22:59 49° 75° (ENE) 09:27:22 437.425
TIGRISAT 21 Nov 09:22:52 09:27:20 50° 75° (ENE) 09:31:43 435.000
FALCONSAT 3 21 Nov 09:27:30 09:31:11 82° 337° (NNW) 09:34:52 435.103
AO-73 21 Nov 09:27:32 09:30:46 22° 287° (WNW) 09:34:03 145.935
DELFI C3 21 Nov 09:36:58 09:40:47 44° 100° (E) 09:44:35 145.870
Oscar 11 21 Nov 09:43:55 09:47:20 23° 288° (WNW) 09:50:46 .
PRISM 21 Nov 10:17:24 10:21:29 82° 76° (ENE) 10:25:38 437.425
AIST 2D 21 Nov 10:38:47 10:41:54 32° 75° (ENE) 10:45:00 435.315
EO-88 21 Nov 10:40:20 10:43:50 47° 284° (WNW) 10:47:21 145.990 - 145.960
Max Valier Satellite 21 Nov 10:42:25 10:45:36 28° 286° (WNW) 10:48:48 145.860
EO-79 21 Nov 10:44:06 10:46:00 13° 69° (ENE) 10:47:53 145.935-145.965
NANOSAT C BR1 21 Nov 10:47:31 10:49:11 12° 69° (ENE) 10:50:52 145.865
PCSat 21 Nov 10:47:48 10:53:05 55° 250° (WSW) 10:58:19 145.827
ESTCUBE 1 21 Nov 10:56:55 10:59:51 17° 96° (E) 11:02:48 437.505/2401.250
POLYITAN 1 21 Nov 10:58:10 11:01:14 20° 71° (ENE) 11:04:17 437.675
UNISAT 6 21 Nov 10:58:55 10:59:48 10° 266° (W) 11:00:40 437.425
TIGRISAT 21 Nov 11:03:29 11:04:07 10° 266° (W) 11:04:44 435.000
LO-87 21 Nov 11:04:48 11:07:50 27° 98° (E) 11:10:51 145.935 - 145.965
FALCONSAT 3 21 Nov 11:07:17 11:10:33 29° 351° (N) 11:13:48 435.103
QB50P2 21 Nov 11:20:24 11:24:25 43° 75° (ENE) 11:28:27 145.880/145.840
BEESAT 3 21 Nov 11:28:59 11:31:03 14° 55° (NE) 11:33:06 437.485
DUCHIFAT 1 21 Nov 12:09:37 12:13:47 64° 259° (WSW) 12:17:58 145.980
SPROUT 21 Nov 12:12:32 12:16:10 27° 98° (E) 12:19:46 437.525
EO-79 21 Nov 12:17:26 12:21:22 36° 261° (W) 12:25:17 145.935-145.965
NANOSAT C BR1 21 Nov 12:20:33 12:24:29 38° 261° (W) 12:28:26 145.865
ESTCUBE 1 21 Nov 12:32:38 12:36:36 31° 287° (WNW) 12:40:34 437.505/2401.250
POLYITAN 1 21 Nov 12:33:22 12:36:47 23° 263° (W) 12:40:12 437.675
JUGNU 21 Nov 12:33:50 12:36:39 14° 161° (SSE) 12:39:27 437.505
O/OREOS (USA 219) 21 Nov 12:37:40 12:41:25 25° 102° (ESE) 12:45:10 437.305
BEESAT 2 21 Nov 12:39:44 12:43:02 24° 58° (ENE) 12:46:16 435.950
LO-87 21 Nov 12:39:59 12:40:54 11° 289° (WNW) 12:41:49 145.935 - 145.965
FALCONSAT 3 21 Nov 12:47:01 12:50:12 26° 6° (N) 12:53:23 435.103
VELOX 1 21 Nov 12:51:57 12:56:18 52° 101° (E) 13:00:36 145.980
QB50P2 21 Nov 12:59:43 13:00:18 10° 266° (W) 13:00:51 145.880/145.840
BUGSAT 1 21 Nov 13:01:24 13:05:36 70° 259° (WSW) 13:09:46 437.445
Oscar 19 21 Nov 13:03:49 13:08:48 56° 74° (ENE) 13:13:47 437.125/150
BEESAT 3 21 Nov 13:05:09 13:08:38 31° 248° (WSW) 13:12:02 437.485
AO-7 21 Nov 13:16:36 13:18:45 11° 56° (NE) 13:20:55 .
Gurwin Techsat 1B 21 Nov 13:30:22 13:35:39 74° 76° (ENE) 13:40:58 435.225
NO-84 21 Nov 13:34:12 13:36:22 16° 119° (ESE) 13:38:38 435.350 FM
DX 1 21 Nov 13:37:04 13:41:02 33° 99° (E) 13:44:57 434.975-435.025
AO-85 21 Nov 13:39:30 13:44:14 51° 62° (ENE) 13:49:16 145.980
SPROUT 21 Nov 13:49:05 13:51:46 17° 289° (WNW) 13:54:27 437.525
M-CUBED/EXP-1 PRIME 21 Nov 14:13:06 14:16:28 60° 71° (ENE) 14:20:05 437.505
O/OREOS (USA 219) 21 Nov 14:17:12 14:20:42 21° 294° (WNW) 14:24:12 437.305
BEESAT 2 21 Nov 14:17:48 14:20:30 18° 251° (WSW) 14:23:12 435.950
UKube-1 21 Nov 14:18:20 14:22:39 66° 102° (ESE) 14:26:55 .
JUGNU 21 Nov 14:20:16 14:25:10 27° 168° (SSE) 14:30:03 437.505
50 SAT 21 Nov 14:21:29 14:24:26 34° 285° (WNW) 14:27:21 437.505
FALCONSAT 3 21 Nov 14:25:59 14:29:39 63° 21° (NNE) 14:33:18 435.103
Oscar 19 21 Nov 14:46:41 14:48:19 11° 266° (W) 14:49:56 437.125/150
ITAMSAT 1 21 Nov 14:57:02 15:01:47 37° 72° (ENE) 15:06:33 435.822/435.867
AO-7 21 Nov 15:01:53 15:10:07 74° 71° (ENE) 15:18:23 .
NO-84 21 Nov 15:10:18 15:13:23 28° 315° (NW) 15:16:41 435.350 FM
DX 1 21 Nov 15:14:23 15:16:51 15° 291° (WNW) 15:19:19 434.975-435.025
BEESAT 21 Nov 15:19:27 15:23:49 37° 99° (E) 15:28:11 436.000
AO-85 21 Nov 15:21:44 15:24:19 14° 252° (WSW) 15:26:59 145.980
ITUPSAT 1 21 Nov 15:29:11 15:33:46 47° 101° (E) 15:38:19 437.325
DOVE 4 21 Nov 15:32:09 15:32:39 10° 66° (ENE) 15:33:07 437.250
MOZHAYETS 4 21 Nov 15:38:45 15:43:19 89° 275° (W) 15:47:54
CUBESAT XI-V 21 Nov 15:51:46 15:55:33 24° 97° (E) 15:59:18 437.345
FALCONSAT 3 21 Nov 16:05:32 16:08:33 24° 213° (SSW) 16:11:35 435.103
SRMSAT 21 Nov 16:05:56 16:09:51 18° 162° (SSE) 16:13:46 437.500
JUGNU 21 Nov 16:08:25 16:13:47 37° 178° (S) 16:19:08 437.505
YUBILEINY 21 Nov 16:36:11 16:44:30 44° 80° (E) 16:52:44 435.215
ITAMSAT 1 21 Nov 16:37:36 16:41:14 19° 264° (W) 16:44:54 435.822/435.867
BEESAT 21 Nov 16:58:22 17:01:14 16° 291° (WNW) 17:04:06 436.000
AO-7 21 Nov 16:58:23 17:03:18 17° 264° (W) 17:08:16 .
XW-2B 21 Nov 17:02:20 17:04:17 14° 71° (ENE) 17:06:15 145.730 - 145.750
DOVE 4 21 Nov 17:04:41 17:09:32 68° 260° (W) 17:14:41 437.250
ITUPSAT 1 21 Nov 17:09:02 17:11:06 13° 292° (WNW) 17:13:10 437.325
NUDT-PHONESAT 21 Nov 17:15:41 17:17:32 13° 71° (ENE) 17:19:22 437.300
XW-2C 21 Nov 17:26:27 17:29:46 31° 75° (ENE) 17:33:05 145.795 - 145.815
KKS-1 21 Nov 17:28:02 17:32:27 63° 101° (ESE) 17:36:50 437.445
LilacSat-2 21 Nov 17:28:47 17:32:15 37° 75° (ENE) 17:35:43 437.200
CUBESAT XI-V 21 Nov 17:29:00 17:32:44 24° 288° (WNW) 17:36:28 437.345
XW-2F 21 Nov 17:36:35 17:40:04 39° 76° (ENE) 17:43:33 145.980 - 146.000
STARS 21 Nov 17:51:18 17:55:25 40° 100° (E) 17:59:31 437.465
RS-15 21 Nov 17:52:19 18:03:55 53° 108° (ESE) 18:15:38 29.354- 29.394
SRMSAT 21 Nov 17:53:21 17:58:33 32° 171° (S) 18:03:46 437.500
JUGNU 21 Nov 17:57:14 18:02:25 33° 188° (S) 18:07:36 437.505
KAITUO 1B 21 Nov 18:03:31 18:07:10 77° 78° (ENE) 18:10:51 145.475/437.950
CUTE-I 21 Nov 18:10:34 18:15:54 87° 252° (WSW) 18:21:19 437.470
SEEDS 21 Nov 18:10:38 18:12:31 13° 70° (ENE) 18:14:25 437.485
XW-2D 21 Nov 18:19:50 18:23:17 37° 261° (W) 18:26:46 145.860 - 145.880
HO-68 21 Nov 18:25:54 18:32:51 55° 71° (ENE) 18:39:50 435.675
YUBILEINY 21 Nov 18:33:29 18:40:52 31° 274° (W) 18:48:15 435.215
XW-2B 21 Nov 18:35:07 18:38:11 24° 263° (W) 18:41:15 145.730 - 145.750
STRAND 1 21 Nov 18:36:24 18:37:32 11° 94° (E) 18:38:39 437.568
CUBEBUG 2 21 Nov 18:39:18 18:43:25 32° 74° (ENE) 18:47:26 437.445
NUDT-PHONESAT 21 Nov 18:48:08 18:51:05 23° 263° (W) 18:54:03 437.300
nSIGHT-1 21 Nov 18:55:01 18:56:46 14° 125° (SE) 18:58:31 .
XW-2C 21 Nov 19:03:20 19:03:58 10° 266° (W) 19:04:35 145.795 - 145.815
CUTE 1.7 + AOD 2 21 Nov 19:14:16 19:18:18 47° 261° (W) 19:22:21 437.475
ZACube-1 21 Nov 19:24:45 19:28:28 28° 74° (ENE) 19:32:07 437.345
STARS 21 Nov 19:29:32 19:31:19 12° 292° (WNW) 19:33:05 437.465
UWE-3 21 Nov 19:34:41 19:39:12 82° 77° (ENE) 19:43:37 435.000/436.395/437.385
ISS 21 Nov 19:39:10 19:42:14 40° 129° (SE) 19:45:20 437.550
SRMSAT 21 Nov 19:41:55 19:47:22 38° 181° (S) 19:52:50 437.500
SEEDS 21 Nov 19:44:03 19:47:49 34° 262° (W) 19:51:37 437.485
JUGNU 21 Nov 19:46:52 19:50:58 20° 196° (SSW) 19:55:04 437.505
AAUSAT CUBESAT 2 21 Nov 19:48:50 19:52:56 82° 259° (WSW) 19:57:04 437.432
XW-2A 21 Nov 20:02:03 20:05:05 33° 261° (W) 20:08:08 145.665 - 145.685
RS-15 21 Nov 20:05:19 20:16:32 40° 306° (NW) 20:27:52 29.354- 29.394
STRAND 1 21 Nov 20:11:55 20:16:57 59° 285° (WNW) 20:21:55 437.568
AO-73 21 Nov 20:14:43 20:19:05 75° 259° (WSW) 20:23:20 145.935
HO-68 21 Nov 20:15:38 20:20:45 21° 264° (W) 20:25:53 435.675
CUBEBUG 2 21 Nov 20:17:00 20:19:57 17° 264° (W) 20:22:53 437.445
nSIGHT-1 21 Nov 20:29:54 20:32:45 29° 317° (NW) 20:35:37 .
Oscar 11 21 Nov 20:30:33 20:34:49 75° 258° (WSW) 20:39:07 .
FO-29 21 Nov 20:31:08 20:38:36 50° 99° (E) 20:45:25 435.910
SO-50 21 Nov 20:51:06 20:55:03 32° 112° (ESE) 20:59:02 436.795
ZACube-1 21 Nov 21:01:49 21:04:39 17° 264° (W) 21:07:28 437.345
EO-88 21 Nov 21:11:22 21:14:10 22° 73° (ENE) 21:16:59 145.990 - 145.960
Max Valier Satellite 21 Nov 21:13:47 21:17:09 36° 75° (ENE) 21:20:31 145.860
ISS 21 Nov 21:17:10 21:18:50 13° 322° (NW) 21:20:29 437.550
UNISAT 6 21 Nov 21:18:13 21:20:58 17° 96° (E) 21:23:43 437.425
TIGRISAT 21 Nov 21:22:24 21:25:09 17° 96° (E) 21:27:54 435.000
SRMSAT 21 Nov 21:31:05 21:36:10 30° 191° (S) 21:41:17 437.500
DELFI C3 21 Nov 21:49:23 21:53:05 40° 261° (W) 21:56:50 145.870
NO-84 21 Nov 21:50:35 21:51:26 10° 37° (NE) 21:52:16 435.350 FM
PRISM 21 Nov 22:06:17 22:09:16 19° 97° (E) 22:12:14 437.425
FO-29 21 Nov 22:16:54 22:23:02 27° 294° (WNW) 22:28:51 435.910
SO-50 21 Nov 22:32:26 22:35:30 18° 305° (NW) 22:38:36 436.795
EO-88 21 Nov 22:45:43 22:47:41 14° 264° (W) 22:49:40 145.990 - 145.960
UNISAT 6 21 Nov 22:54:02 22:57:37 26° 287° (WNW) 23:01:10 437.425
O/OREOS (USA 219) 21 Nov 22:55:09 22:58:00 16° 64° (ENE) 23:00:49 437.305
TIGRISAT 21 Nov 22:58:14 23:01:46 26° 287° (WNW) 23:05:17 435.000
LO-87 21 Nov 23:06:06 23:09:43 86° 259° (W) 23:13:20 145.935 - 145.965
QB50P2 21 Nov 23:13:59 23:15:36 12° 95° (E) 23:17:14 145.880/145.840
SRMSAT 21 Nov 23:21:28 23:24:52 15° 199° (SSW) 23:28:16 437.500
ESTCUBE 1 21 Nov 23:24:19 23:28:46 81° 257° (WSW) 23:33:16 437.505/2401.250
NO-84 21 Nov 23:25:02 23:29:19 88° 52° (NE) 23:33:27 435.350 FM
PCSat 21 Nov 23:39:03 23:44:16 53° 110° (ESE) 23:49:32 145.827
PRISM 21 Nov 23:41:08 23:44:23 23° 288° (WNW) 23:47:38 437.425
AIST 2D 21 Nov 23:42:38 23:46:10 69° 281° (WNW) 23:49:40 435.315
VELOX 1 21 Nov 23:43:01 23:46:14 20° 71° (ENE) 23:49:26 145.980
DUCHIFAT 1 22 Nov 00:00:31 00:04:15 32° 99° (E) 00:07:59 145.980
EO-79 22 Nov 00:08:26 00:12:34 58° 101° (E) 00:16:40 145.935-145.965
NANOSAT C BR1 22 Nov 00:11:13 00:15:18 54° 100° (E) 00:19:23 145.865
POLYITAN 1 22 Nov 00:23:54 00:28:06 86° 280° (W) 00:32:15 437.675
DX 1 22 Nov 00:27:36 00:29:29 13° 68° (ENE) 00:31:22 434.975-435.025
O/OREOS (USA 219) 22 Nov 00:33:24 00:37:24 32° 257° (WSW) 00:41:22 437.305
SPROUT 22 Nov 00:33:35 00:37:46 53° 260° (W) 00:41:58 437.525
50 SAT 22 Nov 00:42:23 00:44:27 16° 72° (ENE) 00:46:32 437.505
QB50P2 22 Nov 00:47:35 00:51:26 36° 286° (WNW) 00:55:15 145.880/145.840
BUGSAT 1 22 Nov 00:50:23 00:53:47 26° 98° (E) 00:57:10 437.445
UKube-1 22 Nov 01:06:27 01:09:48 22° 71° (ENE) 01:13:09 .
BEESAT 3 22 Nov 01:12:38 01:13:58 11° 108° (ESE) 01:15:18 437.485
VELOX 1 22 Nov 01:18:45 01:22:25 25° 262° (W) 01:26:07 145.980
Oscar 19 22 Nov 01:22:31 01:27:14 35° 99° (E) 01:31:56 437.125/150
PCSat 22 Nov 01:24:42 01:27:55 16° 304° (NW) 01:31:09 145.827
DUCHIFAT 1 22 Nov 01:37:28 01:39:34 14° 290° (WNW) 01:41:40 145.980
Gurwin Techsat 1B 22 Nov 01:53:45 01:58:56 52° 101° (E) 02:04:06 435.225
M-CUBED/EXP-1 PRIME 22 Nov 02:00:12 02:01:03 10° 98° (E) 02:01:53 437.505
DX 1 22 Nov 02:01:10 02:05:14 40° 260° (W) 02:09:21 434.975-435.025
50 SAT 22 Nov 02:14:31 02:16:22 14° 264° (W) 02:18:14 437.505
BEESAT 22 Nov 02:19:44 02:23:10 20° 70° (ENE) 02:26:37 436.000
BEESAT 2 22 Nov 02:24:06 02:27:12 22° 110° (ESE) 02:30:19 435.950
BUGSAT 1 22 Nov 02:26:31 02:28:51 15° 289° (WNW) 02:31:11 437.445
ITUPSAT 1 22 Nov 02:29:29 02:33:23 25° 71° (ENE) 02:37:17 437.325
MOZHAYETS 4 22 Nov 02:33:41 02:37:52 37° 74° (ENE) 02:42:04
UKube-1 22 Nov 02:42:22 02:45:39 21° 263° (W) 02:48:56 .
BEESAT 3 22 Nov 02:47:24 02:51:05 36° 300° (WNW) 02:54:48 437.485
CUBESAT XI-V 22 Nov 02:51:06 02:51:54 10° 68° (ENE) 02:52:43 437.345
Oscar 19 22 Nov 03:02:34 03:06:14 20° 291° (WNW) 03:09:55 437.125/150
RS-15 22 Nov 03:04:22 03:14:21 31° 50° (NE) 03:23:50 29.354- 29.394
AO-7 22 Nov 03:11:47 03:19:25 39° 101° (E) 03:27:01 .
ITAMSAT 1 22 Nov 03:17:22 03:21:26 23° 97° (E) 03:25:28 435.822/435.867
M-CUBED/EXP-1 PRIME 22 Nov 03:31:01 03:35:32 56° 289° (WNW) 03:40:04 437.505
Gurwin Techsat 1B 22 Nov 03:35:38 03:38:21 14° 293° (WNW) 03:41:05 435.225
AO-85 22 Nov 03:47:50 03:51:41 83° 113° (ESE) 03:55:36 145.980
ISS 22 Nov 03:48:55 03:51:31 22° 41° (NE) 03:54:08 437.550
BEESAT 22 Nov 03:56:32 04:00:41 30° 262° (W) 04:04:50 436.000
BEESAT 2 22 Nov 04:01:45 04:04:47 20° 303° (WNW) 04:07:50 435.950
ITUPSAT 1 22 Nov 04:07:16 04:11:03 23° 263° (W) 04:14:50 437.325
MOZHAYETS 4 22 Nov 04:12:40 04:15:04 14° 265° (W) 04:17:26
KKS-1 22 Nov 04:19:37 04:23:13 24° 72° (ENE) 04:26:50 437.445
CUBESAT XI-V 22 Nov 04:24:16 04:28:43 53° 260° (W) 04:33:13 437.345
nSIGHT-1 22 Nov 04:37:43 04:40:51 61° 229° (SW) 04:43:59 .
STARS 22 Nov 04:42:09 04:44:50 16° 70° (ENE) 04:47:32 437.465
ITAMSAT 1 22 Nov 04:56:19 05:00:47 30° 289° (WNW) 05:05:15 435.822/435.867
AO-7 22 Nov 05:04:31 05:11:57 38° 294° (WNW) 05:19:24 .
DOVE 4 22 Nov 05:10:51 05:15:52 61° 100° (E) 05:20:35 437.250
RS-15 22 Nov 05:16:02 05:27:24 65° 249° (WSW) 05:38:13 29.354- 29.394
ISS 22 Nov 05:25:26 05:27:52 20° 233° (SW) 05:30:18 437.550
YUBILEINY 22 Nov 05:27:44 05:36:17 62° 91° (E) 05:44:54 435.215
KAITUO 1B 22 Nov 05:42:50 05:44:31 13° 95° (E) 05:46:13 145.475/437.950
KKS-1 22 Nov 05:56:14 05:59:37 21° 263° (W) 06:03:01 437.445
XW-2D 22 Nov 05:58:43 06:02:12 33° 99° (E) 06:05:40 145.860 - 145.880
HO-68 22 Nov 06:04:07 06:07:33 14° 94° (E) 06:10:57 435.675
XW-2B 22 Nov 06:13:22 06:17:05 52° 100° (E) 06:20:49 145.730 - 145.750
STARS 22 Nov 06:16:53 06:20:50 32° 261° (W) 06:24:49 437.465
NUDT-PHONESAT 22 Nov 06:23:56 06:27:31 47° 100° (E) 06:31:07 437.300
